To NAV CANADA Home Page Login to a new session Search on AWWS site Feedback and Comments Disclaimer Vers la page française équivalente Tips FAQ What's new on the site To the Forecasts and Observations / NOTAM section To "File a Flight Plan" website Publications and other links Update of the User's profile FIC Telephone Numbers My Weather Data Folder Route Weather Data Regional Weather Data Local Weather Data To the Forecasts and Observations / NOTAM section
Request Generated 05/03/2016 at 22:06:48 UTC . Weather information available at that time is displayed.

METAR/TAF

WHALE COVE/NU    

METAR CYXN 032200Z 31015KT 15SM SKC M06/M10 A3011 RMK -5.6/-13.3/0/0
LAST STFD OB/NXT 041200Z SLP199=
METAR CYXN 032100Z 31016KT 15SM SKC M06/M11 A3012 RMK SLP202=
METAR CYXN 032000Z 32015KT 15SM SKC M06/M11 A3012 RMK SLP201=

CYXN - No TAF is issued for this station

Your time UTC time
Weather data provided by Environment Canada and NAV CANADA